[[{"header":{"parameterUnit":"m.s-1","parameterCategory":1,"la1":30.2991,"la2":30.254,"lo1":-89.0895,"lo2":-89.0444,"dy":0.0017,"dx":0.0017,"nx":28,"ny":28,"refTime":"2025-03-24T03:00:00:Z","depth":0,"parameterNumber":2,"parameterNumberName":"U-component_of_WINDS"},"data":[0,0,0,0,0,0,0,0,0,0,0,0,0,0,0,0,0,0,0,0,0,0,0,0,0,0,0,0,0,0,0,0,0,0,0,0,0,0,0,0,0,0,0,0,0,0,0,0,0,0,0,0,0,0,0,0,0,0,-0.3201,-0.32,0,-0.3147,-0.3147,-0.3146,-0.3123,-0.3123,-0.3123,-0.3123,-0.3067,-0.3066,-0.3064,0,0,0,0,0,0,0,0,0,0,0,0,0,-0.3281,-0.328,-0.3201,-0.32,-0.32,-0.3148,-0.3147,-0.3146,-0.3123,-0.3123,-0.3123,-0.3123,-0.3068,-0.3066,-0.3064,0,0,0,0,0,0,0,0,0,0,0,0,0,-0.3239,-0.3279,-0.3201,-0.3182,-0.318,-0.3148,-0.3147,-0.3146,-0.3123,-0.3123,-0.3123,-0.3123,-0.3068,-0.3066,-0.3064,-0.3046,0,0,-0.3056,-0.3055,0,0,0,0,0,0,0,0,-0.3241,-0.3236,-0.3185,-0.3183,-0.3181,-0.3142,-0.3154,-0.3113,-0.3123,-0.3144,-0.3123,-0.3123,-0.3092,-0.3088,-0.3077,-0.3044,-0.3041,-0.3056,-0.3055,-0.3054,-0.3053,0,0,0,0,0,0,0,-0.3244,-0.3238,-0.318,-0.3185,-0.3182,-0.3175,-0.3169,-0.3146,-0.3118,-0.3143,-0.3141,-0.3135,-0.3091,-0.308,-0.3076,-0.3041,-0.3056,-0.3054,-0.3053,-0.3052,-0.2989,-0.2989,0,0,0,0,0,0,-0.325,-0.3241,-0.3181,-0.3178,-0.3212,-0.3174,-0.3167,-0.3154,-0.3118,-0.3113,-0.3135,-0.3134,-0.3084,-0.3079,-0.3074,-0.305,-0.3054,-0.3052,-0.305,-0.2989,-0.2989,-0.2989,0,0,0,0,0,0,-0.3252,-0.3245,-0.3184,-0.3209,-0.32,-0.3172,-0.3158,-0.3153,-0.3142,-0.3112,-0.3107,-0.3129,-0.3083,-0.3077,-0.3053,-0.3048,-0.3051,-0.3048,-0.299,-0.2989,-0.2989,-0.3004,0,0,0,0,0,0,-0.3255,-0.3246,-0.324,-0.3209,-0.3199,-0.3165,-0.3158,-0.3152,-0.3138,-0.3137,-0.3105,-0.31,-0.3083,-0.3057,-0.3051,-0.3045,-0.3047,-0.299,-0.2989,-0.2989,-0.3004,-0.3004,-0.3005,0,0,0,0,0,-0.3258,-0.3246,-0.324,-0.3233,-0.3191,-0.3164,-0.3159,-0.314,-0.3138,-0.3131,-0.3112,-0.3101,-0.305,-0.3055,-0.3048,-0.3041,-0.299,-0.299,-0.2989,-0.3004,-0.3004,-0.3005,0,0,0,0,0,0,-0.3277,-0.3242,-0.3234,-0.3213,-0.3192,-0.3161,-0.3151,-0.3141,-0.312,-0.3119,-0.3096,-0.3089,-0.3067,-0.3051,-0.3058,-0.3022,-0.3019,-0.3017,-0.3033,-0.3033,-0.3033,-0.3037,-0.3045,0,0,0,0,0,-0.3279,-0.3261,-0.3231,-0.3215,-0.3205,-0.318,-0.3168,-0.3155,-0.3132,-0.3123,-0.3102,-0.308,-0.3058,-0.3045,-0.3024,-0.3002,-0.2994,-0.2993,-0.2994,-0.2994,-0.2993,-0.2979,-0.2978,-0.2987,-0.2987,-0.2987,0,0,-0.3283,-0.3261,-0.3251,-0.3218,-0.3201,-0.3182,-0.3173,-0.3153,-0.3139,-0.312,-0.3096,-0.308,-0.3053,-0.303,-0.3019,-0.3017,-0.2988,-0.2994,-0.2994,-0.2992,-0.2978,-0.2977,-0.2977,-0.2987,-0.2987,-0.2987,0,0,-0.328,-0.3262,-0.3246,-0.3228,-0.3202,-0.3185,-0.3181,-0.3151,-0.314,-0.3116,-0.3101,-0.3083,-0.3047,-0.3028,-0.3014,-0.3003,-0.2992,-0.2997,-0.2998,-0.2985,-0.2984,-0.2984,-0.2979,-0.2977,-0.2995,-0.2995,-0.2995,0,-0.3287,-0.3259,-0.3239,-0.322,-0.3206,-0.3188,-0.3171,-0.3155,-0.3122,-0.3112,-0.311,-0.3064,-0.3045,-0.3017,-0.3014,-0.3004,-0.2998,-0.3,-0.2986,-0.2985,-0.2984,-0.2979,-0.2978,-0.2996,-0.2996,-0.2996,-0.2996,0,-0.3269,-0.325,-0.324,-0.3209,-0.3194,-0.3176,-0.3153,-0.3139,-0.3127,-0.3111,-0.3085,-0.3062,-0.3035,-0.3028,-0.3016,-0.2997,-0.2997,-0.2991,-0.2988,-0.2984,-0.2979,-0.2977,-0.2997,-0.2997,-0.2997,-0.2996,0,0,-0.3277,-0.3235,-0.3232,-0.3217,-0.3186,-0.317,-0.3151,-0.3125,-0.3114,-0.3092,-0.3075,-0.3044,-0.3038,-0.3022,-0.3008,-0.2997,-0.2988,-0.2992,-0.2991,-0.2992,-0.2965,-0.2969,-0.2968,-0.2981,-0.2981,-0.298,-0.2967,0,-0.3269,-0.3235,-0.3216,-0.319,-0.3171,-0.3153,-0.3136,-0.3115,-0.3098,-0.3079,-0.3061,-0.304,-0.3034,-0.3024,-0.3012,-0.2992,-0.2983,-0.2993,-0.2964,-0.2963,-0.2971,-0.2965,-0.2969,-0.2958,-0.2965,-0.2965,-0.2964,0,-0.3256,-0.3234,-0.3205,-0.3175,-0.3167,-0.3152,-0.3126,-0.3109,-0.3084,-0.3072,-0.3054,-0.304,-0.3018,-0.3017,-0.2986,-0.2994,-0.2981,-0.2969,-0.2968,-0.2964,-0.2963,-0.296,-0.2954,-0.2952,-0.2961,-0.2962,-0.2962,0,-0.3263,-0.3227,-0.3205,-0.3193,-0.3158,-0.3148,-0.3132,-0.3108,-0.3093,-0.307,-0.306,-0.3035,-0.3021,-0.3002,-0.2981,-0.2982,-0.2952,-0.2949,-0.2941,-0.2942,-0.2935,-0.2936,-0.2926,-0.2928,-0.2928,-0.2928,-0.2928,0,-0.3256,-0.3239,-0.3208,-0.3194,-0.3174,-0.3152,-0.3133,-0.3116,-0.3094,-0.3076,-0.3059,-0.3043,-0.3017,-0.2996,-0.298,-0.2956,-0.295,-0.294,-0.2936,-0.2941,-0.2943,-0.2932,-0.2932,-0.2928,-0.2928,-0.2928,-0.2928,0,-0.3261,-0.324,-0.3214,-0.3183,-0.3174,-0.3161,-0.3134,-0.3119,-0.3102,-0.308,-0.3073,-0.3046,-0.3021,-0.2998,-0.2966,-0.2954,-0.293,-0.2925,-0.2939,-0.2936,-0.2929,-0.293,-0.2912,-0.2909,-0.2914,-0.2914,-0.2914,0,-0.3258,-0.3244,-0.3211,-0.3198,-0.3183,-0.3163,-0.3147,-0.3125,-0.311,-0.3079,-0.3068,-0.3043,-0.3021,-0.2982,-0.2959,-0.2934,-0.2927,-0.2923,-0.2923,-0.2929,-0.2926,-0.2927,-0.2925,-0.2923,-0.2923,-0.2923,-0.2923,0,-0.3254,-0.3244,-0.3223,-0.3197,-0.318,-0.3159,-0.3137,-0.3127,-0.3101,-0.3084,-0.3059,-0.3042,-0.3008,-0.2983,-0.2954,-0.2938,-0.2926,-0.2923,-0.292,-0.2925,-0.2933,-0.2928,-0.2939,-0.2924,-0.2923,-0.2923,-0.2923,-0.2923,-0.3254,-0.3241,-0.3215,-0.3192,-0.3173,-0.3153,-0.3138,-0.3118,-0.3097,-0.3068,-0.3056,-0.303,-0.3004,-0.2965,-0.2949,-0.2927,-0.2925,-0.292,-0.2919,-0.2918,-0.2919,-0.2937,-0.2922,-0.2922,-0.2922,-0.2922,-0.2922,0,-0.3248,-0.3231,-0.321,-0.318,-0.3161,-0.3152,-0.3127,-0.3112,-0.309,-0.3067,-0.3045,-0.3016,-0.299,-0.2965,-0.2938,-0.2926,-0.292,-0.292,-0.292,-0.2916,-0.2923,-0.2928,-0.2925,-0.2925,-0.2925,-0.2925,-0.2925,-0.2925,-0.3243,-0.322,-0.3206,-0.3173,-0.3156,-0.313,-0.3117,-0.3098,-0.3079,-0.3047,-0.3026,-0.301,-0.2985,-0.2956,-0.2932,-0.2925,-0.2916,-0.2917,-0.2909,-0.2916,-0.2916,-0.2916,-0.292,-0.2916,-0.2916,-0.2903,-0.2903,-0.2903]},{"header":{"parameterUnit":"m.s-1","parameterCategory":1,"la1":30.2991,"la2":30.254,"lo1":-89.0895,"lo2":-89.0444,"dy":0.0017,"dx":0.0017,"nx":28,"ny":28,"refTime":"2025-03-24T03:00:00:Z","depth":0,"parameterNumber":3,"parameterNumberName":"V-component_of_WINDS"},"data":[0,0,0,0,0,0,0,0,0,0,0,0,0,0,0,0,0,0,0,0,0,0,0,0,0,0,0,0,0,0,0,0,0,0,0,0,0,0,0,0,0,0,0,0,0,0,0,0,0,0,0,0,0,0,0,0,0,0,2.6404,2.6406,0,2.6551,2.6553,2.6555,2.6594,2.6593,2.6592,2.6592,2.6736,2.674,2.6745,0,0,0,0,0,0,0,0,0,0,0,0,0,2.6153,2.6157,2.6404,2.6406,2.6408,2.6551,2.6553,2.6555,2.6594,2.6593,2.6592,2.6591,2.6734,2.674,2.6745,0,0,0,0,0,0,0,0,0,0,0,0,0,2.6277,2.6158,2.6404,2.6445,2.645,2.6551,2.6553,2.6556,2.6594,2.6593,2.6592,2.6591,2.6732,2.6739,2.6746,2.6814,0,0,2.6767,2.677,0,0,0,0,0,0,0,0,2.627,2.6286,2.6437,2.6442,2.6448,2.6553,2.6517,2.6642,2.6595,2.6539,2.6592,2.659,2.6676,2.6687,2.6717,2.6821,2.6827,2.6768,2.6772,2.6775,2.6777,0,0,0,0,0,0,0,2.6261,2.628,2.6462,2.6439,2.6446,2.6454,2.6471,2.6541,2.6613,2.6544,2.6547,2.6565,2.6678,2.671,2.6721,2.6829,2.6768,2.6774,2.6778,2.6781,2.6999,2.7001,0,0,0,0,0,0,2.6246,2.6272,2.6457,2.6467,2.6354,2.646,2.6478,2.6521,2.6612,2.6625,2.6565,2.6566,2.6699,2.6713,2.6726,2.6815,2.6775,2.6781,2.6785,2.6998,2.7,2.7002,0,0,0,0,0,0,2.6241,2.6262,2.6452,2.6371,2.6395,2.6466,2.6513,2.6524,2.6557,2.6628,2.6641,2.6586,2.6699,2.6716,2.6793,2.682,2.6785,2.6791,2.6996,2.6998,2.7001,2.699,0,0,0,0,0,0,2.6233,2.626,2.6288,2.6371,2.6399,2.6517,2.6515,2.6528,2.6569,2.6571,2.665,2.6662,2.6699,2.6783,2.68,2.6829,2.6796,2.6994,2.6997,2.7,2.6989,2.6992,2.6995,0,0,0,0,0,2.6224,2.6277,2.6289,2.6311,2.6436,2.6519,2.6535,2.6578,2.6571,2.6599,2.6646,2.666,2.6814,2.679,2.681,2.6841,2.6992,2.6996,2.7,2.6987,2.6992,2.6995,0,0,0,0,0,0,2.6192,2.6288,2.6303,2.6384,2.6444,2.6525,2.6562,2.6581,2.6642,2.6641,2.669,2.6707,2.6781,2.6819,2.679,2.6914,2.6903,2.6911,2.6887,2.6892,2.6895,2.6885,2.6802,0,0,0,0,0,2.6195,2.6256,2.6336,2.64,2.643,2.6491,2.6528,2.6557,2.6619,2.6644,2.6696,2.6754,2.6816,2.6855,2.6916,2.6994,2.7012,2.7025,2.7029,2.7031,2.7037,2.7084,2.7091,2.7014,2.7014,2.7014,0,0,2.62,2.6261,2.6296,2.6396,2.6445,2.6506,2.6511,2.6575,2.6621,2.6653,2.673,2.677,2.6838,2.6917,2.6954,2.695,2.7063,2.7036,2.7037,2.7042,2.7088,2.7095,2.7102,2.7016,2.7016,2.7015,0,0,2.6243,2.6294,2.6355,2.6405,2.6481,2.6521,2.6536,2.6616,2.6645,2.6723,2.6749,2.6803,2.6908,2.6957,2.6995,2.7059,2.7074,2.7076,2.7094,2.7138,2.7145,2.715,2.7175,2.7183,2.7082,2.7082,2.7082,0,2.624,2.6336,2.6383,2.6448,2.6491,2.6525,2.6587,2.6632,2.6722,2.6751,2.6746,2.6881,2.6929,2.7021,2.7037,2.7066,2.7084,2.7068,2.714,2.7146,2.7152,2.7176,2.7185,2.7082,2.7082,2.7082,2.7082,0,2.6329,2.6395,2.6435,2.6525,2.6573,2.6635,2.6691,2.6733,2.6758,2.6799,2.6879,2.6938,2.7013,2.7036,2.7059,2.7132,2.7128,2.7131,2.7121,2.7159,2.7182,2.7192,2.7082,2.7082,2.7082,2.7082,0,0,2.6355,2.6473,2.6487,2.653,2.6616,2.6668,2.6731,2.6807,2.6843,2.6904,2.696,2.7049,2.7054,2.7097,2.7126,2.7165,2.7214,2.7164,2.7166,2.7173,2.7299,2.7298,2.7308,2.7225,2.7227,2.7228,2.7294,0,2.641,2.6529,2.6574,2.6671,2.6733,2.6767,2.6823,2.6881,2.6922,2.6979,2.7022,2.7086,2.7086,2.7113,2.7153,2.7199,2.724,2.7195,2.7276,2.7279,2.726,2.732,2.7318,2.7377,2.7304,2.7305,2.7306,0,2.649,2.6556,2.666,2.6742,2.6769,2.6819,2.6894,2.6948,2.7015,2.7042,2.7092,2.7119,2.7187,2.7172,2.7267,2.7235,2.7271,2.7299,2.7302,2.7313,2.7296,2.7333,2.7397,2.7407,2.7321,2.7319,2.7318,0,2.6501,2.6615,2.6693,2.6728,2.6825,2.686,2.6901,2.6967,2.7011,2.7075,2.7104,2.7173,2.7212,2.7265,2.731,2.7295,2.7401,2.739,2.7425,2.7424,2.7446,2.7445,2.7519,2.7466,2.7466,2.7466,2.7466,0,2.6559,2.6621,2.67,2.6748,2.6819,2.687,2.6939,2.6982,2.7041,2.7097,2.7129,2.7181,2.7237,2.7295,2.733,2.7405,2.7421,2.7444,2.7453,2.7442,2.744,2.7467,2.7465,2.7468,2.7468,2.7467,2.7467,0,2.6584,2.6639,2.6727,2.6812,2.6835,2.6884,2.6957,2.7004,2.7046,2.7117,2.7136,2.7202,2.7273,2.7323,2.7413,2.7437,2.7517,2.7525,2.7496,2.7501,2.7534,2.7531,2.763,2.7646,2.758,2.7581,2.7581,0,2.6618,2.6668,2.676,2.6801,2.6844,2.6909,2.6955,2.7007,2.7053,2.7135,2.7172,2.7246,2.7308,2.742,2.7474,2.7544,2.7554,2.7584,2.7565,2.7554,2.7557,2.7555,2.7561,2.7588,2.7588,2.7588,2.7589,0,2.6673,2.6699,2.6765,2.6841,2.6896,2.6957,2.7019,2.705,2.7113,2.7163,2.7238,2.7286,2.738,2.7453,2.7529,2.757,2.759,2.7594,2.7607,2.7597,2.7579,2.7592,2.7506,2.7592,2.7592,2.7592,2.7591,2.7591,2.6705,2.6752,2.6826,2.6899,2.6951,2.7009,2.7059,2.7109,2.7173,2.7256,2.7281,2.7359,2.7426,2.7531,2.7573,2.7634,2.7632,2.7649,2.7653,2.7657,2.7658,2.7568,2.7647,2.7647,2.7647,2.7647,2.7647,0,2.6764,2.6814,2.6881,2.6969,2.7026,2.7042,2.7112,2.7159,2.7228,2.729,2.7351,2.7438,2.7509,2.757,2.7644,2.7681,2.7693,2.7699,2.7698,2.7707,2.7654,2.7638,2.7689,2.7689,2.7689,2.7689,2.7689,2.7689,2.6802,2.6883,2.6918,2.7025,2.7074,2.7153,2.7192,2.7245,2.7296,2.7392,2.7453,2.7493,2.7555,2.7634,2.77,2.7716,2.7743,2.7748,2.7766,2.7716,2.7711,2.7706,2.7691,2.7752,2.7753,2.7814,2.7815,2.7815]}]]